SKW5686 KDEN-KTUS

Flight info

Callsign SKW5686
Flight time 2h 0m
Altitude 36000
Route SUDDZ1 SUDDZ DCT ABQ DCT SSO ZONNA2
Aircraft E175/M-SDE3GILORVW/S

Departure

Time 2026-04-24 04:29
Airport Denver International Airport (KDEN)

Arrival

Time 2026-04-24 06:29
Airport Tucson International Airport (KTUS)
Time Latitude Longitude Altitude Speed Heading
2026-04-24 03:51 39.85870 -104.66627 5424 ft 0 kts 360°
2026-04-24 04:12 39.85869 -104.66627 5424 ft 0 kts 360°
2026-04-24 04:13 39.85856 -104.66627 5424 ft 2 kts 360°
2026-04-24 04:13 39.85841 -104.66627 5424 ft 2 kts 359°
2026-04-24 04:13 39.85828 -104.66633 5424 ft 2 kts 51°
2026-04-24 04:13 39.85823 -104.66650 5424 ft 1 kts 95°
2026-04-24 04:14 39.85825 -104.66634 5424 ft 4 kts 89°
2026-04-24 04:14 39.85824 -104.66615 5424 ft 0 kts 90°
2026-04-24 04:18 39.85824 -104.66610 5424 ft 1 kts 90°
2026-04-24 04:18 39.85824 -104.66590 5425 ft 3 kts 90°
2026-04-24 04:19 39.85824 -104.66554 5425 ft 4 kts 90°
2026-04-24 04:19 39.85822 -104.66505 5426 ft 5 kts 111°
2026-04-24 04:19 39.85782 -104.66489 5426 ft 6 kts 179°
2026-04-24 04:19 39.85733 -104.66489 5427 ft 7 kts 180°
2026-04-24 04:20 39.85686 -104.66505 5426 ft 7 kts 233°
2026-04-24 04:20 39.85659 -104.66575 5425 ft 10 kts 263°
2026-04-24 04:20 39.85659 -104.66686 5423 ft 14 kts 270°
2026-04-24 04:20 39.85660 -104.66825 5420 ft 16 kts 270°
2026-04-24 04:21 39.85662 -104.66982 5417 ft 18 kts 270°
2026-04-24 04:21 39.85663 -104.67168 5411 ft 22 kts 271°
2026-04-24 04:21 39.85664 -104.67353 5403 ft 19 kts 271°
2026-04-24 04:21 39.85666 -104.67551 5389 ft 23 kts 270°
2026-04-24 04:22 39.85667 -104.67748 5376 ft 21 kts 270°
2026-04-24 04:22 39.85668 -104.67933 5363 ft 17 kts 270°
2026-04-24 04:22 39.85669 -104.68102 5352 ft 15 kts 270°
2026-04-24 04:22 39.85675 -104.68214 5344 ft 11 kts 296°
2026-04-24 04:23 39.85686 -104.68292 5339 ft 8 kts 270°
2026-04-24 04:23 39.85678 -104.68381 5334 ft 11 kts 226°
2026-04-24 04:23 39.85582 -104.68401 5329 ft 15 kts 180°
2026-04-24 04:23 39.85469 -104.68402 5326 ft 16 kts 180°
2026-04-24 04:24 39.85351 -104.68404 5324 ft 16 kts 180°
2026-04-24 04:24 39.85262 -104.68404 5322 ft 8 kts 180°
2026-04-24 04:24 39.85211 -104.68434 5318 ft 10 kts 246°
2026-04-24 04:24 39.85206 -104.68569 5309 ft 18 kts 268°
2026-04-24 04:25 39.85202 -104.68763 5300 ft 23 kts 269°
2026-04-24 04:25 39.85197 -104.68986 5290 ft 23 kts 268°
2026-04-24 04:25 39.85196 -104.69160 5289 ft 16 kts 271°
2026-04-24 04:25 39.85199 -104.69298 5290 ft 13 kts 271°
2026-04-24 04:26 39.85202 -104.69407 5294 ft 9 kts 272°
2026-04-24 04:26 39.85201 -104.69466 5296 ft 5 kts 269°
2026-04-24 04:26 39.85202 -104.69508 5297 ft 4 kts 270°
2026-04-24 04:26 39.85202 -104.69546 5299 ft 4 kts 270°
2026-04-24 04:27 39.85202 -104.69593 5300 ft 5 kts 270°
2026-04-24 04:27 39.85204 -104.69640 5302 ft 4 kts 286°
2026-04-24 04:27 39.85245 -104.69661 5301 ft 10 kts
2026-04-24 04:27 39.85265 -104.69660 5299 ft 0 kts
2026-04-24 04:28 39.85314 -104.69659 5296 ft 24 kts 359°
2026-04-24 04:28 39.85754 -104.69654 5276 ft 99 kts 360°
2026-04-24 04:28 39.86647 -104.69645 5278 ft 154 kts 359°
2026-04-24 04:28 39.87758 -104.69593 5723 ft 164 kts 359°
2026-04-24 04:29 39.88876 -104.69733 6382 ft 164 kts 332°
2026-04-24 04:29 39.89673 -104.70675 6935 ft 155 kts 298°
2026-04-24 04:29 39.89973 -104.71995 7514 ft 155 kts 270°
2026-04-24 04:29 39.89698 -104.73328 8098 ft 157 kts 251°
2026-04-24 04:30 39.89310 -104.74634 8707 ft 154 kts 252°
2026-04-24 04:30 39.88938 -104.75912 9294 ft 151 kts 252°
2026-04-24 04:30 39.88583 -104.77145 9874 ft 146 kts 253°
2026-04-24 04:30 39.88203 -104.78370 10341 ft 150 kts 240°
2026-04-24 04:31 39.87435 -104.79275 10854 ft 156 kts 210°
2026-04-24 04:31 39.86338 -104.79596 11262 ft 168 kts 188°
2026-04-24 04:31 39.85130 -104.79648 11588 ft 180 kts 188°
2026-04-24 04:31 39.83864 -104.79710 11959 ft 189 kts 187°
2026-04-24 04:32 39.82502 -104.79732 12331 ft 201 kts 185°
2026-04-24 04:32 39.81066 -104.79681 12669 ft 214 kts 184°
2026-04-24 04:32 39.79566 -104.79620 13159 ft 218 kts 183°
2026-04-24 04:32 39.78039 -104.79557 13604 ft 225 kts 183°
2026-04-24 04:33 39.76442 -104.79446 14023 ft 235 kts 181°
2026-04-24 04:33 39.74768 -104.79349 14448 ft 244 kts 183°
2026-04-24 04:33 39.73023 -104.79300 14795 ft 259 kts 184°
2026-04-24 04:33 39.71143 -104.79255 15062 ft 277 kts 183°
2026-04-24 04:34 39.69180 -104.79200 15408 ft 292 kts 182°
2026-04-24 04:34 39.67098 -104.79133 15846 ft 304 kts 182°
2026-04-24 04:34 39.64952 -104.79084 16194 ft 317 kts 182°
2026-04-24 04:34 39.62689 -104.79018 16575 ft 330 kts 181°
2026-04-24 04:35 39.60372 -104.79015 17108 ft 336 kts 185°
2026-04-24 04:35 39.58016 -104.79110 17631 ft 343 kts 185°
2026-04-24 04:35 39.55629 -104.79181 18037 ft 354 kts 184°
2026-04-24 04:35 39.53088 -104.79273 18316 ft 367 kts 185°
2026-04-24 04:36 39.50524 -104.79371 18844 ft 373 kts 185°
2026-04-24 04:36 39.47950 -104.79479 19454 ft 375 kts 185°
2026-04-24 04:36 39.45359 -104.79573 20223 ft 373 kts 185°
2026-04-24 04:36 39.42759 -104.79658 20962 ft 372 kts 186°
2026-04-24 04:37 39.40158 -104.79752 21515 ft 376 kts 186°
2026-04-24 04:37 39.37512 -104.79859 21959 ft 383 kts 186°
2026-04-24 04:37 39.34883 -104.79993 22529 ft 384 kts 189°
2026-04-24 04:37 39.32211 -104.80354 23124 ft 384 kts 192°
2026-04-24 04:38 39.29583 -104.80800 23727 ft 384 kts 194°
2026-04-24 04:38 39.26907 -104.81287 24330 ft 386 kts 194°
2026-04-24 04:38 39.24247 -104.81782 24893 ft 388 kts 194°
2026-04-24 04:38 39.21600 -104.82277 25448 ft 390 kts 194°
2026-04-24 04:39 39.18888 -104.82785 25987 ft 393 kts 194°
2026-04-24 04:39 39.16199 -104.83289 26504 ft 395 kts 195°
2026-04-24 04:39 39.13453 -104.83804 26998 ft 397 kts 194°
2026-04-24 04:39 39.10770 -104.84405 27438 ft 396 kts 201°
2026-04-24 04:40 39.08134 -104.85413 27902 ft 396 kts 204°
2026-04-24 04:40 39.05488 -104.86449 28372 ft 398 kts 204°
2026-04-24 04:40 39.02851 -104.87478 28816 ft 401 kts 203°
2026-04-24 04:40 39.00148 -104.88529 29292 ft 403 kts 204°
2026-04-24 04:41 38.97484 -104.89565 29750 ft 405 kts 204°
2026-04-24 04:41 38.94789 -104.90611 30230 ft 406 kts 204°
2026-04-24 04:41 38.92074 -104.91665 30658 ft 408 kts 204°
2026-04-24 04:41 38.89360 -104.92716 31009 ft 409 kts 204°
2026-04-24 04:42 38.86621 -104.93778 31389 ft 410 kts 205°
2026-04-24 04:42 38.83886 -104.94836 31790 ft 411 kts 205°
2026-04-24 04:42 38.81170 -104.95887 32110 ft 412 kts 205°
2026-04-24 04:42 38.78424 -104.96948 32511 ft 410 kts 206°
2026-04-24 04:43 38.75706 -104.97996 32974 ft 407 kts 206°
2026-04-24 04:43 38.73008 -104.99037 33417 ft 403 kts 207°
2026-04-24 04:43 38.70344 -105.00062 33810 ft 400 kts 207°
2026-04-24 04:43 38.67709 -105.01074 34145 ft 398 kts 208°
2026-04-24 04:44 38.65061 -105.02091 34445 ft 398 kts 207°
2026-04-24 04:44 38.62406 -105.03111 34733 ft 398 kts 207°
2026-04-24 04:44 38.59771 -105.04121 35049 ft 396 kts 207°
2026-04-24 04:44 38.57114 -105.05139 35291 ft 397 kts 207°
2026-04-24 04:45 38.54472 -105.06151 35565 ft 397 kts 207°
2026-04-24 04:45 38.51835 -105.07159 35816 ft 398 kts 207°
2026-04-24 04:45 38.49197 -105.08167 36002 ft 399 kts 207°
2026-04-24 04:45 38.46536 -105.09185 36064 ft 405 kts 207°
2026-04-24 04:46 38.41060 -105.11273 35930 ft 413 kts 206°
2026-04-24 04:46 38.38293 -105.12327 36058 ft 416 kts 206°
2026-04-24 04:46 38.35536 -105.13377 36077 ft 421 kts 206°
2026-04-24 04:47 38.29855 -105.15537 36077 ft 428 kts 206°
2026-04-24 04:47 38.24126 -105.17710 36091 ft 428 kts 206°
2026-04-24 04:48 38.18459 -105.19858 36096 ft 426 kts 206°
2026-04-24 04:48 38.12810 -105.21996 36100 ft 426 kts 206°
2026-04-24 04:49 38.07123 -105.24143 36108 ft 426 kts 207°
2026-04-24 04:49 38.01491 -105.26267 36118 ft 423 kts 206°
2026-04-24 04:50 37.95826 -105.28400 36113 ft 423 kts 207°
2026-04-24 04:50 37.90188 -105.30532 36100 ft 423 kts 209°
2026-04-24 04:51 37.84866 -105.33372 36119 ft 413 kts 213°
2026-04-24 04:51 37.79561 -105.36292 36123 ft 415 kts 213°
2026-04-24 04:52 37.74284 -105.39187 36112 ft 413 kts 213°
2026-04-24 04:52 37.69035 -105.42064 36106 ft 413 kts 213°
2026-04-24 04:53 37.63739 -105.44960 36096 ft 411 kts 213°
2026-04-24 04:53 37.58497 -105.47823 36116 ft 411 kts 214°
2026-04-24 04:54 37.53222 -105.50701 36100 ft 413 kts 213°
2026-04-24 04:54 37.47935 -105.53580 36096 ft 409 kts 213°
2026-04-24 04:55 37.42680 -105.56438 36093 ft 411 kts 213°
2026-04-24 04:55 37.37391 -105.59308 36097 ft 409 kts 213°
2026-04-24 04:56 37.32114 -105.62169 36094 ft 412 kts 213°
2026-04-24 04:56 37.26864 -105.65009 36092 ft 408 kts 213°
2026-04-24 04:57 37.21604 -105.67852 36113 ft 409 kts 213°
2026-04-24 04:57 37.16314 -105.70707 36108 ft 413 kts 213°
2026-04-24 04:58 37.11050 -105.73541 36116 ft 409 kts 213°
2026-04-24 04:58 37.05798 -105.76367 36119 ft 409 kts 213°
2026-04-24 04:59 37.00565 -105.79178 36119 ft 408 kts 213°
2026-04-24 04:59 36.95348 -105.81976 36116 ft 408 kts 213°
2026-04-24 05:00 36.90096 -105.84787 36120 ft 410 kts 213°
2026-04-24 05:00 36.84887 -105.87573 36125 ft 410 kts 213°
2026-04-24 05:01 36.79643 -105.90373 36117 ft 409 kts 213°
2026-04-24 05:01 36.74369 -105.93184 36116 ft 411 kts 213°
2026-04-24 05:02 36.69093 -105.95991 36110 ft 410 kts 213°
2026-04-24 05:02 36.63829 -105.98790 36111 ft 409 kts 213°
2026-04-24 05:03 36.58521 -106.01607 36106 ft 410 kts 213°
2026-04-24 05:03 36.53284 -106.04382 36115 ft 410 kts 213°
2026-04-24 05:04 36.47982 -106.07188 36115 ft 414 kts 212°
2026-04-24 05:04 36.42734 -106.09960 36110 ft 410 kts 213°
2026-04-24 05:05 36.37438 -106.12753 36108 ft 412 kts 213°
2026-04-24 05:05 36.32113 -106.15559 36103 ft 414 kts 212°
2026-04-24 05:06 36.26807 -106.18349 36097 ft 412 kts 212°
2026-04-24 05:06 36.21471 -106.21152 36093 ft 412 kts 213°
2026-04-24 05:07 36.16144 -106.23946 36093 ft 412 kts 212°
2026-04-24 05:07 36.10841 -106.26723 36092 ft 413 kts 212°
2026-04-24 05:08 36.05544 -106.29493 36089 ft 413 kts 212°
2026-04-24 05:08 36.00256 -106.32254 36094 ft 414 kts 212°
2026-04-24 05:09 35.94975 -106.35007 36093 ft 414 kts 212°
2026-04-24 05:09 35.89681 -106.37762 36092 ft 411 kts 212°
2026-04-24 05:10 35.84392 -106.40514 36097 ft 414 kts 212°
2026-04-24 05:10 35.79060 -106.43279 36094 ft 414 kts 212°
2026-04-24 05:11 35.73777 -106.46019 36112 ft 416 kts 212°
2026-04-24 05:11 35.68439 -106.48780 36114 ft 415 kts 212°
2026-04-24 05:12 35.63110 -106.51536 36107 ft 417 kts 212°
2026-04-24 05:12 35.57813 -106.54269 36089 ft 417 kts 212°
2026-04-24 05:13 35.49814 -106.58389 36078 ft 414 kts 212°
2026-04-24 05:14 35.45089 -106.60819 36077 ft 417 kts 212°
2026-04-24 05:14 35.39728 -106.63573 36071 ft 418 kts 211°
2026-04-24 05:15 35.34378 -106.66316 36077 ft 417 kts 211°
2026-04-24 05:15 35.29016 -106.69062 36053 ft 419 kts 211°
2026-04-24 05:16 35.23629 -106.71816 36032 ft 421 kts 211°
2026-04-24 05:16 35.18259 -106.74558 36030 ft 419 kts 211°
2026-04-24 05:17 35.12888 -106.77297 36023 ft 420 kts 211°
2026-04-24 05:17 35.07496 -106.80042 36018 ft 420 kts 211°
2026-04-24 05:18 35.02439 -106.83356 36026 ft 404 kts 225°
2026-04-24 05:18 34.97955 -106.87519 36027 ft 406 kts 224°
2026-04-24 05:19 34.93441 -106.91662 36059 ft 408 kts 224°
2026-04-24 05:19 34.88930 -106.95792 36069 ft 405 kts 224°
2026-04-24 05:20 34.84430 -106.99907 36072 ft 407 kts 224°
2026-04-24 05:20 34.79931 -107.04012 36079 ft 404 kts 224°
2026-04-24 05:21 34.75420 -107.08126 36088 ft 405 kts 224°
2026-04-24 05:21 34.70920 -107.12221 36090 ft 407 kts 224°
2026-04-24 05:22 34.66407 -107.16324 36106 ft 405 kts 224°
2026-04-24 05:22 34.61892 -107.20422 36099 ft 404 kts 224°
2026-04-24 05:23 34.57381 -107.24513 36107 ft 405 kts 224°
2026-04-24 05:23 34.52879 -107.28587 36115 ft 403 kts 224°
2026-04-24 05:24 34.48370 -107.32664 36106 ft 403 kts 224°
2026-04-24 05:24 34.43884 -107.36715 36123 ft 405 kts 224°
2026-04-24 05:25 34.39388 -107.40768 36123 ft 404 kts 224°
2026-04-24 05:25 34.34861 -107.44843 36135 ft 403 kts 224°
2026-04-24 05:26 34.30379 -107.48874 36153 ft 404 kts 224°
2026-04-24 05:26 34.25847 -107.52942 36155 ft 405 kts 224°
2026-04-24 05:27 34.21334 -107.56988 36154 ft 403 kts 224°
2026-04-24 05:27 34.16822 -107.61029 36155 ft 404 kts 224°
2026-04-24 05:28 34.12323 -107.65052 36146 ft 403 kts 223°
2026-04-24 05:28 34.07801 -107.69090 36164 ft 404 kts 224°
2026-04-24 05:29 34.03250 -107.73148 36171 ft 406 kts 223°
2026-04-24 05:29 33.98710 -107.77191 36163 ft 404 kts 224°
2026-04-24 05:30 33.94159 -107.81239 36165 ft 404 kts 224°
2026-04-24 05:30 33.89638 -107.85254 36177 ft 405 kts 224°
2026-04-24 05:31 33.85097 -107.89281 36171 ft 406 kts 224°
2026-04-24 05:31 33.82857 -107.91266 36304 ft 405 kts 224°
2026-04-24 05:31 33.80599 -107.93265 36203 ft 402 kts 224°
2026-04-24 05:32 33.76091 -107.97253 36185 ft 403 kts 224°
2026-04-24 05:32 33.71592 -108.01227 36186 ft 402 kts 224°
2026-04-24 05:33 33.67066 -108.05220 36168 ft 400 kts 224°
2026-04-24 05:33 33.62566 -108.09184 36174 ft 404 kts 224°
2026-04-24 05:34 33.55792 -108.15144 36178 ft 404 kts 224°
2026-04-24 05:34 33.51300 -108.19087 36185 ft 398 kts 224°
2026-04-24 05:35 33.46830 -108.23009 36191 ft 400 kts 224°
2026-04-24 05:35 33.42317 -108.26959 36185 ft 398 kts 224°
2026-04-24 05:36 33.37864 -108.30856 36182 ft 400 kts 224°
2026-04-24 05:36 33.33345 -108.34802 36178 ft 401 kts 224°
2026-04-24 05:37 33.28879 -108.38698 36178 ft 399 kts 225°
2026-04-24 05:37 33.24390 -108.42609 36176 ft 398 kts 224°
2026-04-24 05:38 33.19929 -108.46491 36176 ft 397 kts 224°
2026-04-24 05:38 33.15474 -108.50363 36172 ft 396 kts 224°
2026-04-24 05:39 33.11019 -108.54228 36154 ft 397 kts 224°
2026-04-24 05:39 33.06501 -108.58145 36149 ft 397 kts 224°
2026-04-24 05:40 33.02054 -108.61995 36143 ft 398 kts 225°
2026-04-24 05:40 32.97580 -108.65862 36156 ft 397 kts 224°
2026-04-24 05:41 32.93103 -108.69729 36164 ft 396 kts 224°
2026-04-24 05:41 32.88653 -108.73565 36141 ft 397 kts 225°
2026-04-24 05:42 32.84186 -108.77412 36135 ft 396 kts 225°
2026-04-24 05:42 32.79756 -108.81221 36122 ft 391 kts 225°
2026-04-24 05:43 32.75368 -108.84993 36128 ft 386 kts 225°
2026-04-24 05:43 32.70985 -108.88754 35696 ft 391 kts 225°
2026-04-24 05:44 32.68788 -108.90637 35286 ft 390 kts 225°
2026-04-24 05:44 32.66595 -108.92516 34849 ft 393 kts 225°
2026-04-24 05:44 32.64378 -108.94415 34412 ft 393 kts 225°
2026-04-24 05:44 32.62143 -108.96327 33966 ft 396 kts 225°
2026-04-24 05:45 32.59912 -108.98234 33546 ft 396 kts 225°
2026-04-24 05:45 32.57639 -109.00178 33091 ft 401 kts 224°
2026-04-24 05:45 32.55361 -109.02123 32646 ft 402 kts 224°
2026-04-24 05:45 32.53077 -109.04073 32200 ft 406 kts 224°
2026-04-24 05:46 32.50793 -109.06020 31747 ft 406 kts 224°
2026-04-24 05:46 32.48517 -109.07959 31299 ft 403 kts 224°
2026-04-24 05:46 32.46240 -109.09898 30838 ft 401 kts 224°
2026-04-24 05:46 32.44003 -109.11803 30401 ft 400 kts 223°
2026-04-24 05:47 32.41747 -109.13722 29962 ft 400 kts 223°
2026-04-24 05:47 32.39497 -109.15635 29520 ft 397 kts 223°
2026-04-24 05:47 32.37251 -109.17543 29074 ft 394 kts 223°
2026-04-24 05:47 32.35016 -109.19441 28631 ft 393 kts 223°
2026-04-24 05:48 32.32826 -109.21299 28203 ft 389 kts 223°
2026-04-24 05:48 32.30662 -109.23186 27767 ft 384 kts 227°
2026-04-24 05:48 32.28824 -109.25395 27359 ft 375 kts 237°
2026-04-24 05:48 32.27423 -109.27940 26977 ft 369 kts 245°
2026-04-24 05:49 32.26582 -109.30720 26500 ft 361 kts 258°
2026-04-24 05:49 32.26075 -109.33617 26086 ft 359 kts 261°
2026-04-24 05:49 32.25652 -109.36533 25687 ft 358 kts 262°
2026-04-24 05:49 32.25269 -109.39388 25298 ft 357 kts 262°
2026-04-24 05:50 32.24888 -109.42303 24898 ft 357 kts 262°
2026-04-24 05:50 32.24514 -109.45195 24508 ft 355 kts 263°
2026-04-24 05:50 32.24150 -109.48027 24118 ft 355 kts 263°
2026-04-24 05:50 32.23776 -109.50929 23724 ft 353 kts 263°
2026-04-24 05:51 32.23409 -109.53770 23335 ft 352 kts 262°
2026-04-24 05:51 32.23042 -109.56612 22957 ft 352 kts 263°
2026-04-24 05:51 32.22671 -109.59474 22563 ft 351 kts 262°
2026-04-24 05:51 32.22306 -109.62292 22186 ft 350 kts 263°
2026-04-24 05:52 32.21937 -109.65131 21801 ft 349 kts 262°
2026-04-24 05:52 32.21572 -109.67935 21428 ft 348 kts 262°
2026-04-24 05:52 32.21175 -109.70723 21035 ft 345 kts 258°
2026-04-24 05:52 32.20564 -109.73453 20662 ft 344 kts 256°
2026-04-24 05:53 32.19938 -109.76175 20269 ft 343 kts 256°
2026-04-24 05:53 32.19313 -109.78894 19892 ft 343 kts 256°
2026-04-24 05:53 32.18693 -109.81585 19502 ft 340 kts 256°
2026-04-24 05:53 32.18075 -109.84265 19118 ft 339 kts 257°
2026-04-24 05:54 32.17456 -109.86945 18736 ft 340 kts 257°
2026-04-24 05:54 32.16838 -109.89623 18362 ft 339 kts 256°
2026-04-24 05:54 32.16215 -109.92312 17972 ft 340 kts 256°
2026-04-24 05:54 32.15595 -109.94991 17603 ft 338 kts 257°
2026-04-24 05:55 32.14980 -109.97643 17229 ft 335 kts 256°
2026-04-24 05:55 32.14364 -110.00300 16856 ft 333 kts 256°
2026-04-24 05:55 32.13757 -110.02911 16494 ft 331 kts 256°
2026-04-24 05:55 32.13153 -110.05507 16128 ft 330 kts 256°
2026-04-24 05:56 32.12545 -110.08118 15742 ft 327 kts 256°
2026-04-24 05:56 32.11949 -110.10676 15376 ft 323 kts 256°
2026-04-24 05:56 32.11357 -110.13214 15016 ft 323 kts 256°
2026-04-24 05:56 32.10772 -110.15721 14646 ft 310 kts 256°
2026-04-24 05:57 32.10216 -110.18097 14301 ft 296 kts 256°
2026-04-24 05:57 32.09680 -110.20387 13962 ft 283 kts 256°
2026-04-24 05:57 32.09165 -110.22588 13647 ft 275 kts 256°
2026-04-24 05:57 32.08656 -110.24763 13349 ft 275 kts 256°
2026-04-24 05:58 32.08149 -110.26927 13046 ft 277 kts 255°
2026-04-24 05:58 32.07629 -110.29137 12735 ft 279 kts 256°
2026-04-24 05:58 32.07114 -110.31332 12419 ft 277 kts 255°
2026-04-24 05:58 32.06605 -110.33498 12127 ft 276 kts 255°
2026-04-24 05:59 32.06111 -110.35693 11956 ft 275 kts 256°
2026-04-24 05:59 32.05623 -110.37860 11675 ft 277 kts 256°
2026-04-24 05:59 32.05128 -110.40060 11372 ft 276 kts 256°
2026-04-24 05:59 32.04642 -110.42217 11074 ft 276 kts 256°
2026-04-24 06:00 32.04151 -110.44392 10763 ft 273 kts 256°
2026-04-24 06:00 32.03666 -110.46546 10463 ft 273 kts 256°
2026-04-24 06:00 32.03175 -110.48718 10161 ft 273 kts 256°
2026-04-24 06:00 32.02689 -110.50871 9853 ft 274 kts 255°
2026-04-24 06:01 32.02204 -110.53014 9538 ft 265 kts 255°
2026-04-24 06:01 32.01738 -110.55070 9248 ft 255 kts 255°
2026-04-24 06:01 32.01289 -110.57052 8971 ft 245 kts 255°
2026-04-24 06:01 32.00861 -110.58942 8696 ft 237 kts 255°
2026-04-24 06:02 32.00441 -110.60794 8436 ft 229 kts 255°
2026-04-24 06:02 32.00034 -110.62581 8184 ft 223 kts 256°
2026-04-24 06:02 31.99638 -110.64326 7969 ft 220 kts 255°
2026-04-24 06:02 31.99252 -110.66024 7753 ft 211 kts 255°
2026-04-24 06:03 31.98876 -110.67678 7483 ft 205 kts 255°
2026-04-24 06:03 31.98513 -110.69268 7263 ft 198 kts 255°
2026-04-24 06:03 31.98166 -110.70793 7083 ft 190 kts 255°
2026-04-24 06:03 31.97831 -110.72263 6878 ft 183 kts 255°
2026-04-24 06:04 31.97506 -110.73686 6656 ft 177 kts 256°
2026-04-24 06:04 31.97190 -110.75069 6452 ft 172 kts 255°
2026-04-24 06:04 31.97101 -110.76421 6245 ft 170 kts 288°
2026-04-24 06:04 31.97765 -110.77561 6096 ft 170 kts 311°
2026-04-24 06:05 31.98548 -110.78529 5967 ft 164 kts 312°
2026-04-24 06:05 31.99342 -110.79491 5693 ft 162 kts 312°
2026-04-24 06:05 32.00126 -110.80431 5454 ft 159 kts 313°
2026-04-24 06:05 32.00885 -110.81332 5234 ft 155 kts 313°
2026-04-24 06:06 32.01638 -110.82221 5019 ft 148 kts 313°
2026-04-24 06:06 32.02353 -110.83064 4840 ft 147 kts 313°
2026-04-24 06:06 32.03063 -110.83898 4648 ft 139 kts 313°
2026-04-24 06:06 32.03729 -110.84680 4456 ft 133 kts 314°
2026-04-24 06:07 32.04386 -110.85452 4283 ft 132 kts 314°
2026-04-24 06:07 32.05038 -110.86217 4121 ft 133 kts 314°
2026-04-24 06:07 32.05698 -110.86991 3943 ft 134 kts 314°
2026-04-24 06:07 32.06350 -110.87755 3766 ft 133 kts 314°
2026-04-24 06:08 32.07014 -110.88535 3584 ft 133 kts 314°
2026-04-24 06:08 32.07664 -110.89298 3407 ft 133 kts 314°
2026-04-24 06:08 32.08318 -110.90064 3229 ft 132 kts 314°
2026-04-24 06:08 32.08969 -110.90831 3092 ft 131 kts 314°
2026-04-24 06:09 32.09611 -110.91596 2951 ft 131 kts 315°
2026-04-24 06:09 32.10235 -110.92321 2979 ft 125 kts 314°
2026-04-24 06:09 32.10868 -110.93071 3093 ft 136 kts 314°
2026-04-24 06:09 32.11565 -110.93916 3632 ft 149 kts 313°
2026-04-24 06:10 32.12317 -110.94789 4220 ft 161 kts 314°
2026-04-24 06:10 32.13112 -110.95714 4881 ft 167 kts 314°
2026-04-24 06:10 32.13982 -110.96706 5374 ft 187 kts 318°
2026-04-24 06:11 32.16319 -110.98722 6207 ft 206 kts 322°
2026-04-24 06:11 32.17385 -110.99702 6272 ft 185 kts 318°
2026-04-24 06:11 32.18409 -111.00700 6454 ft 189 kts 317°
2026-04-24 06:11 32.19425 -111.01727 6670 ft 194 kts 317°
2026-04-24 06:12 32.20451 -111.02756 6881 ft 196 kts 317°
2026-04-24 06:12 32.21513 -111.03787 6865 ft 198 kts 319°
2026-04-24 06:12 32.22583 -111.04810 6821 ft 197 kts 319°
2026-04-24 06:12 32.23734 -111.05910 6819 ft 226 kts 319°
2026-04-24 06:13 32.24988 -111.07103 6766 ft 232 kts 319°
2026-04-24 06:13 32.26247 -111.08301 6809 ft 233 kts 319°
2026-04-24 06:13 32.27512 -111.09494 6814 ft 233 kts 319°
2026-04-24 06:13 32.28773 -111.10683 6819 ft 232 kts 319°
2026-04-24 06:14 32.30035 -111.11860 6810 ft 231 kts 319°
2026-04-24 06:14 32.31309 -111.13045 6811 ft 232 kts 319°
2026-04-24 06:14 32.32560 -111.14219 6805 ft 232 kts 319°
2026-04-24 06:14 32.33850 -111.15396 6795 ft 232 kts 326°
2026-04-24 06:15 32.35415 -111.15803 6817 ft 240 kts
2026-04-24 06:15 32.36906 -111.14919 6822 ft 246 kts 46°
2026-04-24 06:15 32.37740 -111.13142 6821 ft 248 kts 68°
2026-04-24 06:15 32.38344 -111.11227 6797 ft 248 kts 69°
2026-04-24 06:16 32.38934 -111.09338 6791 ft 247 kts 69°
2026-04-24 06:16 32.39526 -111.07426 6797 ft 247 kts 69°
2026-04-24 06:16 32.40118 -111.05513 6801 ft 248 kts 69°
2026-04-24 06:16 32.40703 -111.03615 6802 ft 247 kts 69°
2026-04-24 06:17 32.41294 -111.01706 6806 ft 248 kts 69°
2026-04-24 06:17 32.41891 -110.99785 6813 ft 247 kts 69°
2026-04-24 06:17 32.42118 -110.97789 6828 ft 248 kts 104°
2026-04-24 06:17 32.41356 -110.95997 6859 ft 245 kts 128°
2026-04-24 06:18 32.40334 -110.94379 6835 ft 246 kts 129°
2026-04-24 06:18 32.39313 -110.92780 6840 ft 245 kts 129°
2026-04-24 06:18 32.38279 -110.91167 6831 ft 244 kts 129°
2026-04-24 06:18 32.37258 -110.89581 6832 ft 244 kts 129°
2026-04-24 06:19 32.36219 -110.87960 6877 ft 246 kts 129°
2026-04-24 06:19 32.35194 -110.86356 6828 ft 245 kts 129°
2026-04-24 06:19 32.34155 -110.84741 6841 ft 245 kts 129°
2026-04-24 06:19 32.33128 -110.83141 6841 ft 246 kts 129°
2026-04-24 06:20 32.32097 -110.81538 6839 ft 245 kts 131°
2026-04-24 06:20 32.30752 -110.80341 6856 ft 240 kts 158°
2026-04-24 06:20 32.29223 -110.79541 6836 ft 241 kts 159°
2026-04-24 06:20 32.27671 -110.78751 6826 ft 240 kts 159°
2026-04-24 06:21 32.26143 -110.77967 6820 ft 240 kts 159°
2026-04-24 06:21 32.24609 -110.77180 6815 ft 241 kts 159°
2026-04-24 06:21 32.23057 -110.76379 6817 ft 240 kts 159°
2026-04-24 06:21 32.21520 -110.75590 6818 ft 241 kts 159°
2026-04-24 06:22 32.19997 -110.74809 6820 ft 240 kts 159°
2026-04-24 06:22 32.18457 -110.74023 6825 ft 241 kts 159°
2026-04-24 06:22 32.16935 -110.73241 6821 ft 233 kts 159°
2026-04-24 06:22 32.15502 -110.72503 6856 ft 216 kts 159°
2026-04-24 06:23 32.14140 -110.71788 6873 ft 214 kts 158°
2026-04-24 06:23 32.12776 -110.71082 6835 ft 210 kts 159°
2026-04-24 06:23 32.11405 -110.70932 6813 ft 198 kts 201°
2026-04-24 06:23 32.10230 -110.71761 6703 ft 198 kts 218°
2026-04-24 06:24 32.09127 -110.72735 6505 ft 197 kts 219°
2026-04-24 06:24 32.08250 -110.73928 6278 ft 194 kts 251°
2026-04-24 06:24 32.07938 -110.75459 6254 ft 191 kts 259°
2026-04-24 06:24 32.07674 -110.77007 6178 ft 189 kts 259°
2026-04-24 06:25 32.07417 -110.78501 5860 ft 188 kts 259°
2026-04-24 06:25 32.07175 -110.79969 5787 ft 170 kts 259°
2026-04-24 06:25 32.06985 -110.81227 5629 ft 150 kts 262°
2026-04-24 06:25 32.06868 -110.82375 5465 ft 132 kts 265°
2026-04-24 06:26 32.06777 -110.83442 5253 ft 131 kts 265°
2026-04-24 06:26 32.06681 -110.84528 4991 ft 134 kts 265°
2026-04-24 06:26 32.06625 -110.85612 4713 ft 133 kts 271°
2026-04-24 06:26 32.06731 -110.86687 4504 ft 131 kts 285°
2026-04-24 06:27 32.07018 -110.87726 4252 ft 134 kts 290°
2026-04-24 06:27 32.07387 -110.88736 3935 ft 135 kts 297°
2026-04-24 06:27 32.07917 -110.89617 3668 ft 132 kts 310°
2026-04-24 06:27 32.08556 -110.90393 3382 ft 132 kts 315°
2026-04-24 06:28 32.09215 -110.91136 3103 ft 131 kts 314°
2026-04-24 06:28 32.09871 -110.91894 2841 ft 131 kts 314°
2026-04-24 06:28 32.10506 -110.92645 2653 ft 128 kts 314°
2026-04-24 06:28 32.11068 -110.93302 2625 ft 91 kts 315°
2026-04-24 06:29 32.11412 -110.93705 2614 ft 54 kts 314°
2026-04-24 06:29 32.11642 -110.93979 2606 ft 38 kts 316°
2026-04-24 06:29 32.11744 -110.94090 2603 ft 11 kts 334°
2026-04-24 06:29 32.11826 -110.94098 2603 ft 11 kts
2026-04-24 06:30 32.11906 -110.94098 2601 ft 9 kts 359°
2026-04-24 06:30 32.11965 -110.94112 2600 ft 9 kts 321°
2026-04-24 06:30 32.12006 -110.94120 2599 ft 7 kts 35°
2026-04-24 06:30 32.12029 -110.94069 2599 ft 7 kts 93°
2026-04-24 06:31 32.12005 -110.94022 2601 ft 6 kts 133°
2026-04-24 06:31 32.11966 -110.93975 2602 ft 9 kts 134°
2026-04-24 06:31 32.11911 -110.93910 2603 ft 11 kts 135°
2026-04-24 06:31 32.11852 -110.93842 2604 ft 11 kts 135°
2026-04-24 06:32 32.11796 -110.93778 2606 ft 10 kts 135°
2026-04-24 06:32 32.11750 -110.93716 2608 ft 9 kts 112°
2026-04-24 06:32 32.11766 -110.93649 2609 ft 9 kts 46°
2026-04-24 06:32 32.11818 -110.93587 2608 ft 11 kts 45°
2026-04-24 06:33 32.11878 -110.93539 2607 ft 9 kts 351°
2026-04-24 06:33 32.11927 -110.93585 2606 ft 7 kts 315°
2026-04-24 06:33 32.11946 -110.93610 2606 ft 3 kts 284°
2026-04-24 06:33 32.11940 -110.93642 2606 ft 4 kts 254°
2026-04-24 06:34 32.11933 -110.93671 2606 ft 2 kts 255°
2026-04-24 06:34 32.11933 -110.93674 2606 ft 0 kts 255°